TimeCDT,TemperatureF,Dew PointF,Humidity,Sea Level PressureIn,VisibilityMPH,Wind Direction,Wind SpeedMPH,Gust SpeedMPH,PrecipitationIn,Events,Conditions,WindDirDegrees,DateUTC
12:49 AM,82.4,77.0,84,29.76,10.0,Calm,Calm,-,N/A,,Mostly Cloudy,0,2012-10-25 05:49:00
1:49 AM,82.4,77.0,84,29.77,10.0,Calm,Calm,-,N/A,,Mostly Cloudy,0,2012-10-25 06:49:00
2:49 AM,80.6,78.8,94,29.77,10.0,Calm,Calm,-,N/A,,Overcast,0,2012-10-25 07:49:00
3:49 AM,80.6,78.8,94,29.76,10.0,Calm,Calm,-,N/A,,Mostly Cloudy,0,2012-10-25 08:49:00
4:49 AM,80.6,75.2,84,29.76,10.0,Calm,Calm,-,N/A,,Mostly Cloudy,0,2012-10-25 09:49:00
5:49 AM,80.6,75.2,84,29.76,10.0,Calm,Calm,-,N/A,,Clear,0,2012-10-25 10:49:00
6:49 AM,78.8,73.4,83,29.77,10.0,Calm,Calm,-,N/A,,Clear,0,2012-10-25 11:49:00
7:44 AM,78.8,73.4,83,29.78,10.0,Calm,Calm,-,N/A,,Clear,0,2012-10-25 12:44:00
8:44 AM,78.8,73.4,83,29.79,10.0,Calm,Calm,-,N/A,,Clear,0,2012-10-25 13:44:00
9:44 AM,82.4,73.4,74,29.80,10.0,Calm,Calm,-,N/A,,Clear,0,2012-10-25 14:44:00
10:46 AM,86.0,69.8,58,29.82,10.0,Calm,Calm,-,N/A,,Clear,0,2012-10-25 15:46:00
11:49 AM,89.6,69.8,52,29.82,10.0,Calm,Calm,-,N/A,,Clear,0,2012-10-25 16:49:00
12:44 PM,89.6,77.0,66,29.81,10.0,SSW,6.9,-,N/A,,Clear,210,2012-10-25 17:44:00
1:52 PM,89.6,75.2,62,29.79,10.0,SW,5.8,-,N/A,,Clear,220,2012-10-25 18:52:00
2:46 PM,89.6,77.0,66,29.77,10.0,SSW,6.9,-,N/A,,Partly Cloudy,200,2012-10-25 19:46:00
3:46 PM,89.6,77.0,66,29.75,10.0,South,11.5,-,N/A,,Scattered Clouds,180,2012-10-25 20:46:00
4:45 PM,89.6,75.2,62,29.74,12.0,South,6.9,-,N/A,,Scattered Clouds,180,2012-10-25 21:45:00
5:44 PM,87.8,75.2,66,29.74,12.0,SW,6.9,-,N/A,,Scattered Clouds,220,2012-10-25 22:44:00
6:44 PM,86.0,75.2,70,29.73,10.0,SSW,9.2,-,N/A,,Mostly Cloudy,200,2012-10-25 23:44:00
7:46 PM,86.0,75.2,70,29.74,8.0,West,5.8,-,N/A,,Mostly Cloudy,270,2012-10-26 00:46:00
8:43 PM,84.2,75.2,74,29.76,8.0,Calm,Calm,-,N/A,,Scattered Clouds,0,2012-10-26 01:43:00
9:45 PM,82.4,75.2,79,29.77,8.0,Calm,Calm,-,N/A,,Scattered Clouds,0,2012-10-26 02:45:00
10:46 PM,80.6,75.2,84,29.79,8.0,Calm,Calm,-,N/A,,Clear,0,2012-10-26 03:46:00
11:46 PM,80.6,75.2,84,29.79,8.0,NE,3.5,-,N/A,,Clear,40,2012-10-26 04:46:00